Regional Weather Roundup
Issued by NWS

Home | Current Version | Previous Version | Text Only | Print | Product List | Glossary On
Versions: 1 2 3 4 5 6 7 8 9 10 11 12 13 14 15 16 17 18 19 20 21 22 23 24 25 26 27
000
ASUS42 KTBW 271316
RWRFL
FLORIDA REGIONAL WEATHER ROUNDUP
NATIONAL WEATHER SERVICE TAMPA BAY RUSKIN FL
900 AM EDT SAT AUG 27 2016

NOTE: "FAIR" INDICATES FEW OR NO CLOUDS BELOW 12,000 FEET WITH NO
SIGNIFICANT WEATHER AND/OR OBSTRUCTIONS TO VISIBILITY.

FLZ001>010-012>015-112-114-115-271400-
PANHANDLE FLORIDA

CITY           SKY/WX    TMP DP  RH WIND       PRES   REMARKS
PENSACOLA      MOSUNNY   79  73  82 E7        30.01R
PENSACOLA NAS  CLOUDY    80  74  81 N6        29.99F THUNDER
MILTON NAS     SUNNY     76  73  91 VRB6      30.02R
CRESTVIEW      SUNNY     76  71  85 E6        30.03S
DUKE FIELD     FAIR      76  72  86 NE3       30.01S
VALPARAISO     MOSUNNY   80  71  74 NE7       30.00S
MARY ESTHER    MOSUNNY   79  71  77 NE9       29.99R
TRI COUNTY     FAIR      76  72  87 NE5       30.04S
PANAMA CITY    FAIR      79  72  79 NE7       30.00S
TYNDALL AFB    MOSUNNY   78  72  82 NE6       30.01R
APALACHICOLA   SUNNY     79  76  90 NE7       30.00R

STATION/POSITION SKY/WX   TEMP    WIND        PRES    WAVE   SWELL
                          AIR SEA DIR/SP/G            HT/PER HT/PER
                          (F)     (DEG/KT/KT) (MB)    (FT/S) (FT/S)
30.1N   87.6W              83 86  100/ 10/ 12 1015.4R   3/ 5   2/ 5
29.2N   88.2W              82 86  180/  6/  8 1014.4R
28.8N   86.0W              84 85  100/ 12/ 23 1014.6    3/ 5
PANAMA CITY BEAC           77 86   50/  7/  9 1016.3R
TOWER C                    83     100/ 15/ 16 1016.1R
28.5N   84.5W              85 86   90/ 16/ 17 1014.3S   3/ 5

$$
FLZ011-016>038-118-127-128-134-139-239-271400-
NORTH FLORIDA

CITY           SKY/WX    TMP DP  RH WIND       PRES   REMARKS
MARIANNA       SUNNY     76  73  91 NE7       30.03R
TALLAHASSEE    MOSUNNY   80  72  76 E6        30.03R
PERRY          MOSUNNY   78  71  80 E5        30.04R
CROSS CITY     CLOUDY    79  72  78 E7        30.03R
LAKE CITY      FAIR      73  72  94 NE6       30.04R
GAINESVILLE    MOSUNNY   78  71  79 NE8       30.03R
MAYPORT NAS    CLOUDY    83  75  77 NE15      30.02R
JACKSONVILLE   LGT RAIN  76  74  93 NE3       30.03R
JAX NAS        PTSUNNY   83  74  74 N8        30.03R
FERNANDINA BEA CLOUDY    84  77  79 NE10      30.02R
ST AUGUSTINE   PTSUNNY   83  77  82 NE15      30.03R
PALM COAST     PTSUNNY   82  77  83 NE12      30.01R

STATION/POSITION SKY/WX   TEMP    WIND        PRES    WAVE   SWELL
                          AIR SEA DIR/SP/G            HT/PER HT/PER
                          (F)     (DEG/KT/KT) (MB)    (FT/S) (FT/S)
SHELL POINT                76      50/  5/  9 1015.2
KEATON BEACH               76      70/  8/ 11 1016.3R
CEDAR KEY                  77      70/ 14/ 16 1016.4R
FERNANDINA                 81 86   20/  7/ 12 1016.5R
30.7N   81.3W                 84                N/A     5/11   2/11
MAYPORT                    80 84   60/ 17/ 20 1016.6R
31.4N   80.9W              83 85   50/ 17/ 21 1016.9R   4/11   2/11
ST AUGUSTINE               81 83   40/ 17/ 19 1017.1R

$$
FLZ040-043>046-052-053-057-058-063-144-271400-
INTERIOR CENTRAL FLORIDA

CITY           SKY/WX    TMP DP  RH WIND       PRES   REMARKS
OCALA          SUNNY     79  72  78 NE7       30.02R
THE VILLAGES     N/A     79  75  89 SW6       29.92R
LEESBURG       SUNNY     78  73  84 N5        30.02R
SANFORD        PTSUNNY   83  73  72 NE6       30.00R
ORLANDO EXEC   PTSUNNY   83  74  74 NE10      29.99S
ORLANDO INTL   PTSUNNY   82  73  74 NE12      29.99R
KISSIMMEE      MOSUNNY   81  74  79 NE7       30.00R
WINTER HAVEN   MOSUNNY   81  72  74 NE5       30.00R
LAKELAND       MOSUNNY   81  75  83 NE12      29.99R
BARTOW         MOSUNNY   81  73  78 NE12G17   29.99R
OKEECHOBEE     PTSUNNY   79  77  94 NE6       29.96R

$$
FLZ041-047-054-059-064-141-147-271400-
EAST CENTRAL FLORIDA

CITY           SKY/WX    TMP DP  RH WIND       PRES   REMARKS
ORMOND BEACH   MOSUNNY   82  75  78 NE6       30.01R
DAYTONA BEACH  PTSUNNY   85  75  72 NE12      30.01R
DELAND         PTSUNNY   81  75  83 NE6       30.01R
NEW SMYRNA BEA MOSUNNY   82  73  74 MISG      30.01R
JFK SPACE CTR  MOSUNNY   84  74  70 E12       29.98R
TITUSVILLE     MOSUNNY   82  79  89 E13       29.99
CAPE CANAVERAL MOSUNNY   84  74  73 NE10      29.97R
PATRICK AFB    PTSUNNY   84  75  75 NE13      29.97R
MELBOURNE      PTSUNNY   83  77  82 NE13      29.97R
VERO BEACH     MOSUNNY   82  76  81 NE6       29.96R
FT PIERCE      CLOUDY    82  78  88 NE5       29.96R
STUART         TSTM      86  79  79 E12G21    29.96R HX  99

STATION/POSITION SKY/WX   TEMP    WIND        PRES    WAVE   SWELL
                          AIR SEA DIR/SP/G            HT/PER HT/PER
                          (F)     (DEG/KT/KT) (MB)    (FT/S) (FT/S)
28.5N   80.2W              82 81   50/ 10/ 10 1015.1R
TRIDENT PIER               81 84   30/  5/  7 1015.1R
28.4N   80.5W                 83                N/A     3/10   2/11
27.5N   80.2W                 84                N/A     3/ 7

$$
FLZ050-056-061-142-242-148-248-149-249-151-251-155-255-
160-260-271400-
WEST CENTRAL FLORIDA

CITY           SKY/WX    TMP DP  RH WIND       PRES   REMARKS
CRYSTAL RIVER  FAIR      79  72  78 E8        30.01S
INVERNESS      FAIR      79  73  83 NE7       30.02R
BROOKSVILLE    SUNNY     80  74  81 NE9       30.01R
CLEARWATER AIR PTSUNNY   81  73  78 E7        29.98S
ST PETE CLEARW PTSUNNY   82  75  79 E9        29.98R
TAMPA INTL     PTSUNNY   82  74  76 E7        29.99R
TAMPA EXEC     SUNNY     82  75  78 NE7       29.99S
PLANT CITY     SUNNY     82  77  83 NE7       30.00S
MACDILL AFB    SUNNY     82  79  90 E13       29.98R
PETER O KNIGHT SUNNY     82  77  83 NE10      29.98S
ST PETERSBURG  SUNNY     82  75  79 E10       29.97R
SARASOTA       SUNNY     82  76  81 E9        29.96R
VENICE         FAIR      82  79  89 E12       29.97R

STATION/POSITION SKY/WX   TEMP    WIND        PRES    WAVE   SWELL
                          AIR SEA DIR/SP/G            HT/PER HT/PER
                          (F)     (DEG/KT/KT) (MB)    (FT/S) (FT/S)
27.3N   84.2W                 87                N/A     2/ 4
CLEARWATER BEACH           80 87   70/  8/ 11 1015.2R
MIDDLE TAMPA BAY                   90/ 10/ 13 1015.1R
VENICE                     81 84   60/ 10/ 12 1014.2R

$$
FLZ066-069-070-075>078-162-262-165-265-271400-
SOUTHWEST FLORIDA AND KEYS

CITY           SKY/WX    TMP DP  RH WIND       PRES   REMARKS
PUNTA GORDA    PTSUNNY   81  78  91 NE7       29.98R
FT MYERS       MOSUNNY   81  78  91 NE9       29.94R
SOUTHWEST INTL PTSUNNY   81  77  88 NE9       29.95R
NAPLES         MOSUNNY   82  79  90 NE8       29.94R
MARCO ISLAND   CLOUDY    81  73  78 NE10      29.94R
MARATHON       MOSUNNY   87  78  74 NE9       29.89R HX 100
KEY WEST INTL  MOSUNNY   83  81  94 NE8       29.90R HX  97

STATION/POSITION SKY/WX   TEMP    WIND        PRES    WAVE   SWELL
                          AIR SEA DIR/SP/G            HT/PER HT/PER
                          (F)     (DEG/KT/KT) (MB)    (FT/S) (FT/S)
NAPLES                        87              1013.4R
26.0N   85.6W              84 86   90/ 14/ 16 1013.7R   3/ 6   2/ 6
DRY TORTUGAS               85      80/ 12/ 14 1013.2R
SAND KEY                   84      60/ 10/ 12 1013.0R
LONG KEY                   85 88   70/ 11/ 12 1012.3R

$$
FLZ067-068-071>074-168-172>174-271400-
SOUTHEAST FLORIDA

CITY           SKY/WX    TMP DP  RH WIND       PRES   REMARKS
W PALM BEACH   PTSUNNY   86  76  71 E12       29.94R HX  96
BOCA RATON     PTSUNNY   86  81  84 E12       29.93R HX 102
FT LAUDER-EXEC PTSUNNY   86  76  71 NE8       29.92R HX  96
FT LAUDERDALE  PTSUNNY   86  78  77 E14       29.91R HX  98
POMPANO BEACH  PTSUNNY   86  78  77 E13       29.93R HX  98
PEMBROKE PINES MOSUNNY   84  79  84 MISG      29.93R HX  96
OPA LOCKA      CLOUDY    84  78  82 E3        29.92S HX  95
MIAMI          CLOUDY    84  77  79 NE6       29.92R
WEST KENDALL   CLOUDY    81  80  97 N5        29.91S
HOMESTEAD      LGT RAIN  79  75  89 NE8       29.91S

STATION/POSITION SKY/WX   TEMP    WIND        PRES    WAVE   SWELL
                          AIR SEA DIR/SP/G            HT/PER HT/PER
                          (F)     (DEG/KT/KT) (MB)    (FT/S) (FT/S)
PORT EVERGLADES            85      60/  9/ 14 1012.8R
VIRGINIA KEY               84 89   60/ 10/ 13 1012.8R
LAKE WORTH                 85 86   60/ 13/ 14 1013.0R
FOWEY ROCKS                85 86   70/ 12/ 12 1013.1F
SETTLEMENT POINT           85      80/ 14/ 15 1014.1R

$$





USA.gov is the U.S. government's official web portal to all federal, state and local government web resources and services.